Lid_Strength_Index
6 5 5 5 3 2 -0 0 1 1 1 0 0 1 1 2 2 1 1 3 1 -1 -1 -1 -2 -2 -2 -2 -2 -2 -2 -2 -1 -1 -2 -2 -2 -2 -2 -2 -1 -0 0
7 6 6 6 3 3 3 2 0 1 1 0 1 1 2 2 2 2 1 1 2 0 -1 -1 -1 -2 -2 -2 -2 -2 -2 -2 -1 -1 -1 -2 -2 -2 -2 -2 -1 -0 0
8 6 7 6 4 4 6 6 3 0 1 1 1 1 1 2 2 2 1 1 1 2 1 -1 -1 -1 -2 -2 -2 -2 -2 -2 -2 -1 -0 -1 -2 -2 -2 -2 -0 0 0
8 7 7 6 6 6 6 6 7 2 1 1 1 1 1 1 1 2 1 1 1 1 2 0 -0 -1 -1 -2 -2 -2 -2 -2 -1 -0 -0 -1 -2 -2 -2 -0 0 1 0
9 7 8 7 7 7 7 6 6 8 2 2 2 2 2 1 1 2 1 1 1 0 -0 2 2 1 -0 -1 -2 -2 -2 -1 -1 0 0 -1 -1 -1 -1 1 1 1 1
9 8 8 7 7 6 7 6 6 6 8 3 2 2 1 1 1 1 1 1 1 0 0 0 1 3 1 -0 -1 -1 -2 -1 -1 0 0 0 -1 -1 0 1 1 1 1
9 9 8 7 6 7 7 6 6 7 7 8 8 3 2 2 3 2 2 1 1 1 1 1 1 1 1 0 -1 -1 -1 -1 -0 -0 0 0 1 1 1 1 1 1 1
11 11 10 9 7 6 6 6 6 6 6 7 10 4 6 4 3 2 2 3 3 2 3 2 1 2 1 1 1 -1 -1 -1 -1 -0 1 1 1 1 1 0 1 1 -0
12 12 11 11 8 6 5 6 6 6 8 7 8 10 6 7 5 3 2 3 3 2 3 2 1 2 2 2 1 1 1 1 0 0 0 1 1 1 1 1 0 0 0
13 12 11 8 6 5 4 5 4 6 6 8 9 7 10 4 6 8 4 2 3 3 2 3 2 2 2 2 3 4 4 3 2 1 1 1 1 -0 0 -0 -1 -0 -0
13 13 10 9 8 7 4 4 5 4 6 8 9 8 9 9 3 5 7 6 4 2 3 2 2 3 2 2 2 4 4 3 3 3 3 2 0 1 1 -0 -2 -0 -2
14 13 12 12 10 8 7 4 4 4 5 8 8 9 10 9 5 5 5 6 5 3 3 3 3 3 3 3 4 6 4 3 3 3 3 3 2 1 -0 -1 -1 -2 -2
16 16 14 13 12 10 9 8 4 5 6 8 8 8 8 9 7 4 4 5 5 11 8 5 3 3 3 3 4 7 6 4 3 3 3 3 2 2 1 -1 -2 -2 -2
17 16 14 14 14 12 9 8 4 4 7 9 9 9 10 9 10 4 4 5 6 12 10 9 8 3 3 3 4 8 5 5 4 3 3 3 3 2 1 -0 -1 -1 -1
16 15 16 16 14 12 12 9 9 5 7 8 9 8 9 9 10 3 4 3 6 9 6 10 9 5 4 4 6 4 4 7 4 3 4 4 3 2 1 -0 -1 -1 -2
17 17 17 16 16 15 14 12 10 5 8 10 10 9 9 10 9 4 4 3 4 5 7 10 10 7 4 5 7 3 4 8 6 5 4 4 4 3 1 0 -0 -1 -1
17 18 18 17 16 15 14 13 11 9 9 10 10 10 10 9 9 5 3 3 4 4 6 12 10 6 5 5 6 4 6 4 5 6 5 5 4 3 2 1 0 -0 -0
18 18 18 17 17 17 16 14 12 12 9 11 11 11 10 9 10 4 4 4 4 4 5 11 10 8 6 6 5 5 6 5 4 7 5 5 4 3 3 2 1 1 1
19 18 18 18 18 16 17 15 13 13 14 11 12 11 12 10 11 5 5 4 4 4 5 7 9 8 11 7 7 10 9 8 7 8 5 6 5 4 3 2 2 3 3
20 19 19 18 18 17 17 15 14 14 15 12 10 11 12 11 10 10 5 5 5 5 7 7 8 8 9 10 7 9 10 10 10 11 8 6 6 6 3 3 3 5 5
20 19 19 19 19 18 17 16 14 15 15 15 11 11 12 12 11 11 5 5 5 7 7 8 9 8 9 11 8 7 8 10 13 12 8 9 7 6 4 5 6 6 5
21 21 20 20 20 18 16 15 13 14 15 15 14 12 11 12 11 10 6 6 5 9 8 8 9 9 10 9 8 9 10 11 12 13 9 12 7 6 5 3 5 4 5
22 21 21 20 20 19 16 15 14 14 14 15 14 13 13 12 13 11 7 7 6 6 6 7 9 7 10 9 8 10 10 9 9 11 9 10 13 7 7 6 5 5 5
22 21 20 20 20 19 16 15 14 13 14 16 16 14 13 13 13 12 7 6 6 7 6 6 7 7 7 8 9 8 11 13 12 10 12 11 14 12 13 12 6 5 5
22 21 20 19 20 20 17 16 15 15 15 15 15 14 13 13 12 11 9 7 7 8 6 6 6 7 7 8 8 10 12 11 14 11 12 12 13 15 14 13 11 6 6
22 20 20 19 17 18 16 15 15 15 16 16 15 13 12 12 11 11 10 8 9 8 8 10 9 8 8 8 9 8 10 10 11 14 10 14 13 14 15 15 13 10 7